Terug naar catalogus

SCOUT B DEB

LostUNKNOWN
NORAD 29170·DEBRIS·🇺🇸 United States

Gelanceerd Aug 10, 1965 vanaf Wallops Flight Facility

Loading…

Volgende Passages (komende 24 uur)

TLE

VerouderendSource: Space-Track

Epoch: Aug 5, 2026, 03:17 UTC

1 29170U 65063U   26217.13711593  .00000198  00000-0  14827-2 0  9999
2 29170  69.2191 177.2467 0748359 315.2159  54.5570 11.90447128 88138

Volg SCOUT B DEB in realtime met AllMySat

Download on the App Store